Погода в Шейно

Россия / Орловская область     52°56′14″N   37°11′49″E
темп.,
°C
ветер,
м/с
пор.,
м/с
влажн.,
%
обл.,
%
осадки,
мм/ч
давл.,
гПа
погр.,
м
31 июля, сб
сб3100:00+18з35890 0.1 100793
03:00+18з37806 0.1 1008165
06:00+17з388235 0.0 1008194
09:00+23з47540 0.0 1009633
12:00+26зюз69412 0.0 10091693
15:00+28з810429 0.0 10092444
18:00+26зсз58477 0.0 10091151
21:00+21зсз33677 0.0 101133
1 августа, вс
вс100:00+19з226997 0.0 101211
03:00+18юз227151 0.0 101212
06:00+19ю34735 0.0 101358
09:00+26ю35459 0.0 1012463
12:00+31юз563429 0.0 10122850
15:00+32зюз682968 0.0 10113173
18:00+31зюз57345 0.0 10101730
21:00+24юз224938 0.0 101114
2 августа, пн
пн200:00+24ю5114811 0.0 1010190
03:00+22ююв375399 0.0 1010112
06:00+22ю485398 0.0 1010143
09:00+23ю375551 0.1 1009200
12:00+32ююз693035 0.0 10082667
15:00+32юз71029100 0.0 10062953
18:00+26з5953100 0.0 1006264
21:00+21ююв510677 0.1 1007226
3 августа, вт
вт300:00+19зюз61686100 0.8 1007626
03:00+18юз41288100 1.9 1005468
06:00+18юз5991100 0.0 1006695
09:00+18зюз6984100 0.1 1008843
12:00+20з786689 0.3 10091157
15:00+21зсз896097 0.6 10101325
18:00+22зсз795310 0.0 10111623
21:00+17з39760 0.0 1013229
4 августа, ср
ср400:00+15з37825 0.0 1014144
03:00+13з35842 0.0 101588
06:00+14з36850 0.0 1016152
09:00+20з34560 0.0 1016646
12:00+24з44394 0.0 10172143
15:00+24з5438100 0.0 10162051
18:00+23з3341100 0.0 10161125
21:00+18зсз236590 0.0 101729